Lincoln, IL

5:50 AM CDT on June 25, 2017 (GMT -0500)
Lincoln

Weather History for KAAA - October, 2012

Change the Weather History Date:

Saturday, October 27, 2012

  Actual Average (KSPI) Record (KSPI)
Temperature  
Mean Temperature 41 °F -  
Max Temperature 50 °F 63 °F 84 °F (1927)
Min Temperature 33 °F 41 °F 23 °F (2013)
Degree Days  
Heating Degree Days 24    
Moisture  
Dew Point 30 °F    
Average Humidity 68    
Maximum Humidity 87    
Minimum Humidity 45    
Precipitation  
Precipitation 0.00 in - - ()
Sea Level Pressure  
Sea Level Pressure 30.28 in    
Wind  
Wind Speed 8 mph (North)    
Max Wind Speed 12 mph    
Max Gust Speed 17 mph    
Visibility 10 miles    
Events      
Averages and records for this station are not official NWS values.
T = Trace of Precipitation, MM = Missing Value Source: NWS Daily Summary

Daily Weather History Graph

Daily Weather History Graph

Search for Another Location

Airport or City:

Trip Planner

Search our weather history database for the weather conditions in past years. The results will help you decide how hot, cold, wet, or windy it might be!

Date:

Astronomy

Oct. 27, 2012 Rise Set
Actual Time 7:21 AM CDT 6:00 PM CDT
Civil Twilight 6:53 AM CDT 6:27 PM CDT
Nautical Twilight 6:21 AM CDT 6:59 PM CDT
Astronomical Twilight 5:50 AM CDT 7:31 PM CDT
Moon 4:46 PM CDT (10/27) 5:16 AM CDT (10/27)
Length of Visible Light 11h 34m
Length of Day
10h 38m
Waxing Gibbous, 96% of the Moon is Illuminated
Oct 27
Waxing Gibbous
Oct 29
Full
Nov 6
Last Quarter
Nov 13
New
Nov 20
First Quarter

Hourly Weather History & Observations

Time (CDT) Temp. Windchill Dew Point Humidity Pressure Visibility Wind Dir Wind Speed Gust Speed Precip Events Conditions
12:15 AM 39.6 °F 36.3 °F 32.0 °F 74% 30.31 in 10.0 mi NNW 4.6 mph - N/A   Clear
12:35 AM 39.4 °F 34.5 °F 32.0 °F 75% 30.31 in 10.0 mi NNW 6.9 mph - N/A   Clear
12:55 AM 39.2 °F 34.2 °F 32.0 °F 75% 30.30 in 10.0 mi North 6.9 mph - N/A   Clear
1:15 AM 38.8 °F 33.2 °F 31.6 °F 75% 30.30 in 10.0 mi North 8.1 mph - N/A   Clear
1:35 AM 39.2 °F 33.6 °F 32.0 °F 75% 30.30 in 10.0 mi NNW 8.1 mph - N/A   Clear
1:55 AM 37.8 °F 31.8 °F 31.1 °F 77% 30.29 in 10.0 mi North 8.1 mph - N/A   Clear
2:15 AM 37.6 °F 31.0 °F 30.9 °F 77% 30.30 in 10.0 mi North 9.2 mph - N/A   Clear
2:35 AM 37.4 °F 31.4 °F 30.9 °F 77% 30.29 in 10.0 mi NNW 8.1 mph - N/A   Clear
2:55 AM 37.4 °F 31.4 °F 30.7 °F 77% 30.30 in 10.0 mi NNW 8.1 mph - N/A   Clear
3:35 AM 37.0 °F 31.0 °F 30.4 °F 77% 30.29 in 10.0 mi North 8.1 mph - N/A   Clear
3:55 AM 36.3 °F 30.1 °F 30.2 °F 78% 30.28 in 10.0 mi NNW 8.1 mph - N/A   Clear
4:15 AM 35.6 °F 29.9 °F 30.2 °F 81% 30.28 in 10.0 mi NNW 6.9 mph - N/A   Clear
4:35 AM 34.9 °F 29.0 °F 30.0 °F 82% 30.28 in 10.0 mi North 6.9 mph - N/A   Clear
4:55 AM 34.9 °F 28.3 °F 30.0 °F 82% 30.29 in 10.0 mi North 8.1 mph - N/A   Clear
5:15 AM 34.7 °F 28.8 °F 29.8 °F 82% 30.29 in 10.0 mi North 6.9 mph - N/A   Clear
5:35 AM 34.2 °F 28.2 °F 29.8 °F 84% 30.30 in 10.0 mi NNW 6.9 mph - N/A   Clear
5:55 AM 34.2 °F 29.0 °F 29.7 °F 84% 30.30 in 10.0 mi North 5.8 mph - N/A   Clear
6:15 AM 33.8 °F 27.0 °F 29.7 °F 85% 30.30 in 10.0 mi North 8.1 mph - N/A   Clear
6:55 AM 33.8 °F 27.7 °F 29.3 °F 84% 30.30 in 10.0 mi North 6.9 mph - N/A   Clear
7:15 AM 33.4 °F 26.6 °F 29.3 °F 85% 30.29 in 10.0 mi North 8.1 mph - N/A   Clear
7:35 AM 33.1 °F 27.7 °F 29.3 °F 86% 30.30 in 10.0 mi North 5.8 mph - N/A   Clear
7:55 AM 33.3 °F 27.9 °F 29.7 °F 87% 30.30 in 10.0 mi North 5.8 mph - N/A   Clear
8:15 AM 34.7 °F 28.8 °F 30.2 °F 84% 30.30 in 10.0 mi North 6.9 mph - N/A   Clear
8:35 AM 36.0 °F 29.6 °F 30.7 °F 81% 30.30 in 10.0 mi North 8.1 mph - N/A   Clear
8:55 AM 37.4 °F 29.8 °F 30.9 °F 77% 30.31 in 10.0 mi North 11.5 mph 16.1 mph N/A   Clear
9:15 AM 39.0 °F 31.8 °F 31.1 °F 73% 30.33 in 10.0 mi North 11.5 mph - N/A   Clear
9:35 AM 40.8 °F 35.0 °F 30.7 °F 67% 30.34 in 10.0 mi North 9.2 mph - N/A   Scattered Clouds
9:55 AM 42.8 °F 37.0 °F 32.0 °F 66% 30.33 in 10.0 mi North 10.4 mph - N/A   Scattered Clouds
10:15 AM 42.8 °F 36.6 °F 32.0 °F 66% 30.33 in 10.0 mi North 11.5 mph - N/A   Clear
10:35 AM 44.1 °F 38.1 °F 31.1 °F 60% 30.32 in 10.0 mi North 11.5 mph - N/A   Clear
10:55 AM 45.5 °F 39.9 °F 31.8 °F 59% 30.32 in 10.0 mi North 11.5 mph 16.1 mph N/A   Clear
11:15 AM 46.6 °F - 31.6 °F 56% 30.32 in 10.0 mi North 10.4 mph - N/A   Clear
11:35 AM 47.3 °F - 31.6 °F 55% 30.31 in 10.0 mi North 9.2 mph - N/A   Clear
11:55 AM 48.2 °F - 31.8 °F 53% 30.31 in 10.0 mi NNW 6.9 mph 16.1 mph N/A   Clear
12:15 PM 48.9 °F - 32.2 °F 52% 30.30 in 10.0 mi North 9.2 mph - N/A   Clear
12:35 PM 49.1 °F - 31.5 °F 51% 30.29 in 10.0 mi NNW 8.1 mph - N/A   Clear
12:55 PM 49.1 °F - 30.0 °F 48% 30.28 in 10.0 mi North 11.5 mph - N/A   Clear
1:15 PM 49.1 °F - 29.7 °F 47% 30.27 in 10.0 mi North 10.4 mph - N/A   Clear
1:35 PM 48.7 °F - 29.3 °F 47% 30.26 in 10.0 mi North 11.5 mph 17.3 mph N/A   Clear
1:55 PM 49.1 °F - 30.6 °F 49% 30.25 in 10.0 mi North 10.4 mph - N/A   Clear
2:15 PM 49.6 °F - 29.7 °F 46% 30.24 in 10.0 mi North 10.4 mph 16.1 mph N/A   Clear
2:35 PM 48.4 °F - 29.7 °F 48% 30.24 in 10.0 mi North 10.4 mph - N/A   Clear
2:55 PM 48.2 °F - 28.6 °F 47% 30.24 in 10.0 mi North 9.2 mph - N/A   Clear
3:15 PM 48.4 °F - 29.5 °F 48% 30.24 in 10.0 mi NNW 8.1 mph 11.5 mph N/A   Clear
3:35 PM 49.8 °F - 29.3 °F 45% 30.24 in 10.0 mi NNW 9.2 mph - N/A   Clear
3:55 PM 48.6 °F - 29.8 °F 48% 30.24 in 10.0 mi North 10.4 mph - N/A   Clear
4:15 PM 48.0 °F - 29.1 °F 48% 30.25 in 10.0 mi North 8.1 mph - N/A   Clear
4:35 PM 47.5 °F - 28.9 °F 49% 30.25 in 10.0 mi North 9.2 mph 16.1 mph N/A   Clear
4:55 PM 46.2 °F 41.2 °F 28.6 °F 50% 30.25 in 10.0 mi North 10.4 mph - N/A   Clear
5:15 PM 45.9 °F 41.7 °F 28.2 °F 50% 30.25 in 10.0 mi North 8.1 mph - N/A   Clear
5:35 PM 44.8 °F 41.0 °F 29.5 °F 55% 30.24 in 10.0 mi North 6.9 mph - N/A   Clear
5:55 PM 44.2 °F 41.0 °F 29.5 °F 56% 30.25 in 10.0 mi North 5.8 mph - N/A   Clear
6:15 PM 43.0 °F 39.5 °F 30.4 °F 61% 30.26 in 10.0 mi North 5.8 mph - N/A   Clear
6:35 PM 42.4 °F 38.8 °F 30.7 °F 63% 30.26 in 10.0 mi North 5.8 mph - N/A   Clear
6:55 PM 42.1 °F 38.4 °F 30.7 °F 64% 30.27 in 10.0 mi North 5.8 mph - N/A   Clear
7:15 PM 41.4 °F 39.4 °F 30.9 °F 66% 30.27 in 10.0 mi North 3.5 mph - N/A   Clear
7:35 PM 40.1 °F 36.1 °F 31.1 °F 70% 30.25 in 10.0 mi North 5.8 mph - N/A   Clear
7:55 PM 40.5 °F 37.3 °F 31.1 °F 69% 30.25 in 10.0 mi North 4.6 mph - N/A   Clear
8:15 PM 39.7 °F 35.6 °F 30.6 °F 70% 30.24 in 10.0 mi North 5.8 mph - N/A   Clear
8:35 PM 39.0 °F 35.7 °F 30.6 °F 72% 30.24 in 10.0 mi North 4.6 mph - N/A   Clear
8:55 PM 39.2 °F 35.0 °F 30.0 °F 70% 30.25 in 10.0 mi North 5.8 mph - N/A   Clear
9:15 PM 38.7 °F 34.3 °F 30.2 °F 72% 30.25 in 10.0 mi North 5.8 mph - N/A   Clear
9:35 PM 37.4 °F 32.8 °F 30.2 °F 75% 30.26 in 10.0 mi North 5.8 mph - N/A   Clear
9:55 PM 38.3 °F 34.8 °F 30.2 °F 73% 30.26 in 10.0 mi North 4.6 mph - N/A   Clear
10:15 PM 37.4 °F 33.8 °F 30.2 °F 75% 30.26 in 10.0 mi North 4.6 mph - N/A   Clear
10:35 PM 37.6 °F 32.3 °F 30.2 °F 75% 30.26 in 10.0 mi North 6.9 mph - N/A   Clear
10:55 PM 37.4 °F 32.8 °F 30.2 °F 75% 30.27 in 10.0 mi North 5.8 mph - N/A   Clear
11:15 PM 35.6 °F 30.7 °F 30.2 °F 81% 30.27 in 10.0 mi North 5.8 mph - N/A   Clear
11:35 PM 35.6 °F 32.8 °F 29.8 °F 80% 30.27 in 10.0 mi North 3.5 mph - N/A   Clear
11:55 PM 35.6 °F 30.7 °F 29.7 °F 79% 30.27 in 10.0 mi North 5.8 mph - N/A   Clear